,,,PA_Meas_PMT16A,,PR_Meas_QMR101_102,,RH_Meas_QMH101,,SR_Meas_QMS101,,TA_Meas_QMH101,,GenWind,,GenWind,
date,time,status,PA,status,PR,status,RH,status,SR,status,TA,status,DirAvg,status,SpdAvg,
2012-05-15, 00:00:04,VALID,1005.6,VALID,0,VALID,93.8657,VALID,0,VALID,24.2291,VALID,16,VALID,0,
2012-05-15, 00:01:04,VALID,1005.63,VALID,0,VALID,93.881,VALID,0,VALID,24.2273,VALID,16,VALID,0,
2012-05-15, 00:02:04,VALID,1005.59,VALID,0,VALID,93.9268,VALID,0,VALID,24.2875,VALID,16,VALID,0,
2012-05-15, 00:03:04,VALID,1005.61,VALID,0,VALID,93.9649,VALID,0,VALID,24.3052,VALID,16,VALID,0,
2012-05-15, 00:04:04,VALID,1005.59,VALID,0,VALID,93.9191,VALID,0.0815089,VALID,24.3246,VALID,16,VALID,0,
2012-05-15, 00:05:04,VALID,1005.59,VALID,0,VALID,93.8581,VALID,0,VALID,24.3246,VALID,16,VALID,0,
2012-05-15, 00:06:04,VALID,1005.6,VALID,0,VALID,93.614,VALID,0.0815089,VALID,24.2857,VALID,16,VALID,0.569141,
2012-05-15, 00:07:04,VALID,1005.56,VALID,0,VALID,93.2249,VALID,0,VALID,24.2273,VALID,16,VALID,0.358594,
2012-05-15, 00:08:04,VALID,1005.57,VALID,0,VALID,93.1181,VALID,0,VALID,24.1689,VALID,16,VALID,0.205078,
2012-05-15, 00:09:04,VALID,1005.54,VALID,0,VALID,93.1257,VALID,0,VALID,24.13,VALID,16,VALID,0.223047,
2012-05-15, 00:10:04,VALID,1005.5,VALID,0,VALID,93.1791,VALID,0,VALID,24.0892,VALID,16,VALID,0,
2012-05-15, 00:11:04,VALID,1005.45,VALID,0,VALID,93.2707,VALID,0.0815089,VALID,24.091,VALID,16,VALID,0,
2012-05-15, 00:12:04,VALID,1005.46,VALID,0,VALID,93.3012,VALID,0,VALID,24.0716,VALID,16,VALID,0,
2012-05-15, 00:13:04,VALID,1005.44,VALID,0,VALID,93.3546,VALID,0.0815089,VALID,24.0521,VALID,16,VALID,0,
2012-05-15, 00:14:04,VALID,1005.4,VALID,0,VALID,93.3928,VALID,0,VALID,23.9919,VALID,16,VALID,0,
2012-05-15, 00:15:04,VALID,1005.4,VALID,0,VALID,93.4233,VALID,0,VALID,23.9937,VALID,16,VALID,0,
2012-05-15, 00:16:04,VALID,1005.39,VALID,0,VALID,93.4996,VALID,0,VALID,23.953,VALID,16,VALID,0,
2012-05-15, 00:17:04,VALID,1005.34,VALID,0,VALID,93.4996,VALID,0,VALID,23.9548,VALID,16,VALID,0,
2012-05-15, 00:18:04,VALID,1005.33,VALID,0,VALID,93.5072,VALID,0,VALID,23.9353,VALID,16,VALID,0,
2012-05-15, 00:19:04,VALID,1005.32,VALID,0,VALID,93.5682,VALID,0,VALID,23.9159,VALID,16,VALID,0,
2012-05-15, 00:20:04,VALID,1005.32,VALID,0,VALID,93.5606,VALID,0,VALID,23.8964,VALID,16,VALID,0,
2012-05-15, 00:21:04,VALID,1005.28,VALID,0,VALID,93.5987,VALID,0,VALID,23.8769,VALID,16,VALID,0,
2012-05-15, 00:22:04,VALID,1005.27,VALID,0,VALID,93.7132,VALID,0,VALID,23.8575,VALID,16,VALID,0,
2012-05-15, 00:23:04,VALID,1005.26,VALID,0,VALID,93.7284,VALID,0,VALID,23.8575,VALID,16,VALID,0,
2012-05-15, 00:24:04,VALID,1005.23,VALID,0,VALID,93.7513,VALID,0,VALID,23.838,VALID,16,VALID,0,
2012-05-15, 00:25:04,VALID,1005.23,VALID,0,VALID,93.8352,VALID,0,VALID,23.8593,VALID,16,VALID,0,
2012-05-15, 00:26:04,VALID,1005.23,VALID,0,VALID,93.9191,VALID,0,VALID,23.838,VALID,16,VALID,0,
2012-05-15, 00:27:04,VALID,1005.24,VALID,0,VALID,93.942,VALID,0,VALID,23.8185,VALID,16,VALID,0,
2012-05-15, 00:28:04,VALID,1005.25,VALID,0,VALID,93.9115,VALID,0,VALID,23.8185,VALID,16,VALID,0,
2012-05-15, 00:29:04,VALID,1005.24,VALID,0,VALID,93.9344,VALID,0,VALID,23.8203,VALID,16,VALID,0,
2012-05-15, 00:30:04,VALID,1005.26,VALID,0,VALID,93.9268,VALID,0,VALID,23.8009,VALID,16,VALID,0,
2012-05-15, 00:31:04,VALID,1005.24,VALID,0,VALID,93.9191,VALID,0,VALID,23.7601,VALID,16,VALID,0,
2012-05-15, 00:32:04,VALID,1005.23,VALID,0,VALID,94.0259,VALID,0,VALID,23.8009,VALID,16,VALID,0,
2012-05-15, 00:33:04,VALID,1005.23,VALID,0,VALID,94.0717,VALID,0,VALID,23.7796,VALID,16,VALID,0,
2012-05-15, 00:34:04,VALID,1005.2,VALID,0,VALID,94.1175,VALID,0,VALID,23.7991,VALID,16,VALID,0,
2012-05-15, 00:35:04,VALID,1005.17,VALID,0,VALID,94.1785,VALID,0,VALID,23.7796,VALID,16,VALID,0,
2012-05-15, 00:36:04,VALID,1005.17,VALID,0,VALID,94.2853,VALID,0,VALID,23.7973,VALID,16,VALID,0.61875,
2012-05-15, 00:37:04,VALID,1005.16,VALID,0,VALID,94.3387,VALID,0,VALID,23.838,VALID,16,VALID,0.436328,
2012-05-15, 00:38:04,VALID,1005.11,VALID,0,VALID,94.3235,VALID,0,VALID,23.838,VALID,16,VALID,0.586719,
2012-05-15, 00:39:04,VALID,1005.11,VALID,0,VALID,94.3692,VALID,0,VALID,23.8982,VALID,16,VALID,0.428516,
2012-05-15, 00:40:04,VALID,1005.09,VALID,0,VALID,94.4684,VALID,0,VALID,23.9177,VALID,16,VALID,0.0597656,
2012-05-15, 00:41:04,VALID,1005.09,VALID,0,VALID,94.4455,VALID,0,VALID,23.8964,VALID,16,VALID,0,
2012-05-15, 00:42:04,VALID,1005.04,VALID,0,VALID,94.4227,VALID,0,VALID,23.8946,VALID,16,VALID,0,
2012-05-15, 00:43:04,VALID,1005.03,VALID,0,VALID,94.3769,VALID,0,VALID,23.8964,VALID,16,VALID,0,
2012-05-15, 00:44:04,VALID,1004.99,VALID,0,VALID,94.3692,VALID,0,VALID,23.9159,VALID,16,VALID,0,
2012-05-15, 00:45:04,VALID,1004.97,VALID,0,VALID,94.3921,VALID,0,VALID,23.9566,VALID,16,VALID,0,
2012-05-15, 00:46:04,VALID,1004.97,VALID,0,VALID,94.3998,VALID,0,VALID,23.9548,VALID,16,VALID,0,
2012-05-15, 00:47:04,VALID,1004.93,VALID,0,VALID,94.3769,VALID,0,VALID,23.9353,VALID,16,VALID,0,
2012-05-15, 00:48:04,VALID,1004.93,VALID,0,VALID,94.3464,VALID,0,VALID,23.9548,VALID,16,VALID,0,
2012-05-15, 00:49:04,VALID,1004.91,VALID,0,VALID,94.2701,VALID,0,VALID,23.9353,VALID,16,VALID,0,
2012-05-15, 00:50:04,VALID,1004.92,VALID,0,VALID,94.2014,VALID,0.0815089,VALID,23.9159,VALID,16,VALID,0,
2012-05-15, 00:51:04,VALID,1004.91,VALID,0,VALID,94.148,VALID,0,VALID,23.9177,VALID,16,VALID,0,
2012-05-15, 00:52:04,VALID,1004.91,VALID,0,VALID,94.1175,VALID,0,VALID,23.8964,VALID,16,VALID,0,
2012-05-15, 00:53:04,VALID,1004.93,VALID,0,VALID,94.0794,VALID,0,VALID,23.8362,VALID,16,VALID,0,
2012-05-15, 00:54:04,VALID,1004.89,VALID,0,VALID,94.0412,VALID,0,VALID,23.8575,VALID,16,VALID,0,
2012-05-15, 00:55:04,VALID,1004.9,VALID,0,VALID,94.0031,VALID,0.0815089,VALID,23.8185,VALID,16,VALID,0,
2012-05-15, 00:56:04,VALID,1004.88,VALID,0,VALID,93.9954,VALID,0.0815089,VALID,23.8009,VALID,16,VALID,0,
2012-05-15, 00:57:04,VALID,1004.87,VALID,0,VALID,94.0107,VALID,0,VALID,23.7814,VALID,16,VALID,0,
2012-05-15, 00:58:04,VALID,1004.84,VALID,0,VALID,94.0183,VALID,0,VALID,23.7425,VALID,16,VALID,0,
2012-05-15, 00:59:04,VALID,1004.83,VALID,0,VALID,94.0183,VALID,0.0815089,VALID,23.7017,VALID,16,VALID,0,
2012-05-15, 01:00:04,VALID,1004.8,VALID,0,VALID,94.087,VALID,0,VALID,23.7017,VALID,16,VALID,0,
2012-05-15, 01:01:04,VALID,1004.81,VALID,0,VALID,94.087,VALID,0.0815089,VALID,23.6823,VALID,16,VALID,0,
2012-05-15, 01:02:04,VALID,1004.79,VALID,0,VALID,94.1556,VALID,0.0815089,VALID,23.6823,VALID,16,VALID,0,
2012-05-15, 01:03:04,VALID,1004.78,VALID,0,VALID,94.1862,VALID,0,VALID,23.6628,VALID,16,VALID,0,
2012-05-15, 01:04:04,VALID,1004.77,VALID,0,VALID,94.2014,VALID,0.0815089,VALID,23.6628,VALID,16,VALID,0,
2012-05-15, 01:05:04,VALID,1004.8,VALID,0,VALID,94.2243,VALID,0.0815089,VALID,23.6628,VALID,16,VALID,0,
2012-05-15, 01:06:04,VALID,1004.79,VALID,0,VALID,94.2548,VALID,0,VALID,23.6434,VALID,16,VALID,0,
2012-05-15, 01:07:04,VALID,1004.81,VALID,0,VALID,94.2701,VALID,0.0815089,VALID,23.6646,VALID,16,VALID,0,
2012-05-15, 01:08:04,VALID,1004.82,VALID,0,VALID,94.293,VALID,0,VALID,23.6044,VALID,16,VALID,0,
2012-05-15, 01:09:04,VALID,1004.79,VALID,0,VALID,94.3311,VALID,0,VALID,23.6646,VALID,16,VALID,0,
2012-05-15, 01:10:04,VALID,1004.77,VALID,0,VALID,94.3692,VALID,0.0815089,VALID,23.6221,VALID,16,VALID,0,
2012-05-15, 01:11:04,VALID,1004.79,VALID,0,VALID,94.4074,VALID,0,VALID,23.6646,VALID,16,VALID,0,
2012-05-15, 01:12:04,VALID,1004.73,VALID,0,VALID,94.4532,VALID,0,VALID,23.6416,VALID,16,VALID,0,
2012-05-15, 01:13:04,VALID,1004.74,VALID,0,VALID,94.4837,VALID,0,VALID,23.6628,VALID,16,VALID,0,
2012-05-15, 01:14:04,VALID,1004.69,VALID,0,VALID,94.4455,VALID,0.0815089,VALID,23.6434,VALID,16,VALID,0,
2012-05-15, 01:15:04,VALID,1004.66,VALID,0,VALID,94.3464,VALID,0.0815089,VALID,23.6044,VALID,16,VALID,0,
2012-05-15, 01:16:04,VALID,1004.66,VALID,0,VALID,94.2701,VALID,0.0815089,VALID,23.5655,VALID,16,VALID,0,
2012-05-15, 01:17:04,VALID,1004.67,VALID,0,VALID,94.2548,VALID,0.0815089,VALID,23.546,VALID,16,VALID,0,
2012-05-15, 01:18:04,VALID,1004.64,VALID,0,VALID,94.3082,VALID,0.0815089,VALID,23.5266,VALID,16,VALID,0,
2012-05-15, 01:19:04,VALID,1004.65,VALID,0,VALID,94.3464,VALID,0.0815089,VALID,23.5266,VALID,16,VALID,0,
2012-05-15, 01:20:04,VALID,1004.64,VALID,0,VALID,94.4379,VALID,0.0815089,VALID,23.5053,VALID,16,VALID,0,
2012-05-15, 01:21:04,VALID,1004.64,VALID,0,VALID,94.4608,VALID,0,VALID,23.5053,VALID,16,VALID,0,
2012-05-15, 01:22:04,VALID,1004.64,VALID,0,VALID,94.5142,VALID,0.0815089,VALID,23.5053,VALID,16,VALID,0,
2012-05-15, 01:23:04,VALID,1004.65,VALID,0,VALID,94.6134,VALID,0.0815089,VALID,23.5655,VALID,16,VALID,0,
2012-05-15, 01:24:04,VALID,1004.65,VALID,0,VALID,94.6515,VALID,0,VALID,23.585,VALID,16,VALID,0,
2012-05-15, 01:25:04,VALID,1004.68,VALID,0,VALID,94.7736,VALID,0,VALID,23.6646,VALID,16,VALID,0,
2012-05-15, 01:26:04,VALID,1004.64,VALID,0,VALID,94.7507,VALID,0,VALID,23.6434,VALID,16,VALID,0,
2012-05-15, 01:27:04,VALID,1004.63,VALID,0,VALID,94.6744,VALID,0,VALID,23.6239,VALID,16,VALID,0,
2012-05-15, 01:28:04,VALID,1004.63,VALID,0,VALID,94.6591,VALID,0,VALID,23.6239,VALID,16,VALID,0,
2012-05-15, 01:29:04,VALID,1004.63,VALID,0,VALID,94.6363,VALID,0,VALID,23.6044,VALID,16,VALID,0,
2012-05-15, 01:30:04,VALID,1004.63,VALID,0,VALID,94.6286,VALID,0,VALID,23.6452,VALID,16,VALID,0,
2012-05-15, 01:31:04,VALID,1004.63,VALID,0,VALID,94.6286,VALID,0,VALID,23.6664,VALID,16,VALID,0,
2012-05-15, 01:32:04,VALID,1004.6,VALID,0,VALID,94.6439,VALID,0,VALID,23.6452,VALID,16,VALID,0,
2012-05-15, 01:33:04,VALID,1004.63,VALID,0,VALID,94.6591,VALID,0,VALID,23.6646,VALID,16,VALID,0,
2012-05-15, 01:34:04,VALID,1004.63,VALID,0,VALID,94.7049,VALID,0,VALID,23.6646,VALID,16,VALID,0,
2012-05-15, 01:35:04,VALID,1004.64,VALID,0,VALID,94.8117,VALID,0,VALID,23.7425,VALID,16,VALID,0,
2012-05-15, 01:36:04,VALID,1004.63,VALID,0,VALID,94.7354,VALID,0,VALID,23.7017,VALID,16,VALID,0,
2012-05-15, 01:37:04,VALID,1004.64,VALID,0,VALID,94.7125,VALID,0,VALID,23.7035,VALID,16,VALID,0,
2012-05-15, 01:38:04,VALID,1004.64,VALID,0,VALID,94.6668,VALID,0,VALID,23.723,VALID,16,VALID,0,
2012-05-15, 01:39:04,VALID,1004.63,VALID,0,VALID,94.5752,VALID,0.0815089,VALID,23.6416,VALID,16,VALID,0,
2012-05-15, 01:40:04,VALID,1004.63,VALID,0,VALID,94.5142,VALID,0.0815089,VALID,23.6434,VALID,16,VALID,0,
2012-05-15, 01:41:04,VALID,1004.61,VALID,0,VALID,94.4532,VALID,0,VALID,23.6239,VALID,16,VALID,0,
2012-05-15, 01:42:04,VALID,1004.6,VALID,0,VALID,94.4303,VALID,0,VALID,23.6044,VALID,16,VALID,0,
2012-05-15, 01:43:04,VALID,1004.54,VALID,0,VALID,94.56,VALID,0,VALID,23.6628,VALID,16,VALID,0,
2012-05-15, 01:44:04,VALID,1004.52,VALID,0,VALID,94.4989,VALID,0.0815089,VALID,23.6239,VALID,16,VALID,0,
2012-05-15, 01:45:04,VALID,1004.52,VALID,0,VALID,94.5066,VALID,0.0815089,VALID,23.6239,VALID,16,VALID,0,
2012-05-15, 01:46:04,VALID,1004.49,VALID,0,VALID,94.4608,VALID,0,VALID,23.585,VALID,14,VALID,0,
2012-05-15, 01:47:04,VALID,1004.53,VALID,0,VALID,94.4761,VALID,0,VALID,23.585,VALID,14,VALID,0,
2012-05-15, 01:48:04,VALID,1004.54,VALID,0,VALID,94.5371,VALID,0.0815089,VALID,23.6239,VALID,14,VALID,0,
2012-05-15, 01:49:04,VALID,1004.53,VALID,0,VALID,94.5447,VALID,0.0815089,VALID,23.6434,VALID,14,VALID,0,
2012-05-15, 01:50:04,VALID,1004.5,VALID,0,VALID,94.4989,VALID,0.0815089,VALID,23.6239,VALID,14,VALID,0,
2012-05-15, 01:51:04,VALID,1004.53,VALID,0,VALID,94.4227,VALID,0.0815089,VALID,23.6044,VALID,14,VALID,0,
2012-05-15, 01:52:04,VALID,1004.52,VALID,0,VALID,94.3998,VALID,0,VALID,23.585,VALID,14,VALID,0,
2012-05-15, 01:53:04,VALID,1004.54,VALID,0,VALID,94.4761,VALID,0,VALID,23.585,VALID,14,VALID,0,
2012-05-15, 01:54:04,VALID,1004.51,VALID,0,VALID,94.5218,VALID,0.0815089,VALID,23.6452,VALID,14,VALID,0,
2012-05-15, 01:55:04,VALID,1004.48,VALID,0,VALID,94.3692,VALID,0,VALID,23.6062,VALID,14,VALID,0,
2012-05-15, 01:56:04,VALID,1004.48,VALID,0,VALID,94.4913,VALID,0,VALID,23.6239,VALID,14,VALID,0,
2012-05-15, 01:57:04,VALID,1004.44,VALID,0,VALID,94.354,VALID,0,VALID,23.6044,VALID,14,VALID,0,
2012-05-15, 01:58:04,VALID,1004.42,VALID,0,VALID,94.3082,VALID,0,VALID,23.5443,VALID,14,VALID,0,
2012-05-15, 01:59:04,VALID,1004.43,VALID,0,VALID,94.3158,VALID,0,VALID,23.5655,VALID,14,VALID,0,
2012-05-15, 02:00:04,VALID,1004.41,VALID,0,VALID,94.2777,VALID,0.0815089,VALID,23.546,VALID,14,VALID,0,
2012-05-15, 02:01:04,VALID,1004.44,VALID,0,VALID,94.3387,VALID,0.0815089,VALID,23.5266,VALID,14,VALID,0,
2012-05-15, 02:02:04,VALID,1004.45,VALID,0,VALID,94.3387,VALID,0.0815089,VALID,23.5053,VALID,14,VALID,0,
2012-05-15, 02:03:04,VALID,1004.45,VALID,0,VALID,94.3692,VALID,0.0815089,VALID,23.5071,VALID,14,VALID,0,
2012-05-15, 02:04:04,VALID,1004.47,VALID,0,VALID,94.4303,VALID,0,VALID,23.5071,VALID,14,VALID,0,
2012-05-15, 02:05:05,VALID,1004.49,VALID,0,VALID,94.4608,VALID,0,VALID,23.5266,VALID,14,VALID,0,
2012-05-15, 02:06:05,VALID,1004.5,VALID,0,VALID,94.4761,VALID,0,VALID,23.5071,VALID,14,VALID,0,
2012-05-15, 02:07:05,VALID,1004.49,VALID,0,VALID,94.5523,VALID,0,VALID,23.5071,VALID,14,VALID,0,
2012-05-15, 02:08:05,VALID,1004.53,VALID,0,VALID,94.5676,VALID,0.0815089,VALID,23.5053,VALID,11,VALID,0,
2012-05-15, 02:09:05,VALID,1004.51,VALID,0,VALID,94.5295,VALID,0,VALID,23.5089,VALID,7,VALID,0,
2012-05-15, 02:10:05,VALID,1004.45,VALID,0,VALID,94.4837,VALID,0,VALID,23.4894,VALID,7,VALID,0,
2012-05-15, 02:11:05,VALID,1004.45,VALID,0,VALID,94.5066,VALID,0,VALID,23.4894,VALID,7,VALID,0,
2012-05-15, 02:12:05,VALID,1004.45,VALID,0,VALID,94.5447,VALID,0,VALID,23.4894,VALID,7,VALID,0,
2012-05-15, 02:13:05,VALID,1004.42,VALID,0,VALID,94.6515,VALID,0,VALID,23.5089,VALID,7,VALID,0,
2012-05-15, 02:14:05,VALID,1004.4,VALID,0,VALID,94.6668,VALID,0,VALID,23.4877,VALID,7,VALID,0,
2012-05-15, 02:15:05,VALID,1004.39,VALID,0,VALID,94.6897,VALID,0,VALID,23.5089,VALID,7,VALID,0,
2012-05-15, 02:16:05,VALID,1004.41,VALID,0,VALID,94.7125,VALID,0,VALID,23.4877,VALID,7,VALID,0,
2012-05-15, 02:17:05,VALID,1004.39,VALID,0,VALID,94.6668,VALID,0,VALID,23.5284,VALID,7,VALID,0,
2012-05-15, 02:18:05,VALID,1004.4,VALID,0,VALID,94.6668,VALID,0,VALID,23.5089,VALID,7,VALID,0,
2012-05-15, 02:19:05,VALID,1004.38,VALID,0,VALID,94.682,VALID,0,VALID,23.5089,VALID,7,VALID,0,
2012-05-15, 02:20:05,VALID,1004.4,VALID,0,VALID,94.6668,VALID,0,VALID,23.4894,VALID,7,VALID,0,
2012-05-15, 02:21:05,VALID,1004.39,VALID,0,VALID,94.6286,VALID,0,VALID,23.47,VALID,7,VALID,0,
2012-05-15, 02:22:05,VALID,1004.37,VALID,0,VALID,94.5981,VALID,0,VALID,23.4293,VALID,7,VALID,0,
2012-05-15, 02:23:05,VALID,1004.35,VALID,0,VALID,94.56,VALID,0,VALID,23.4293,VALID,7,VALID,0,
2012-05-15, 02:24:05,VALID,1004.32,VALID,0,VALID,94.6057,VALID,0.0815089,VALID,23.4293,VALID,7,VALID,0,
2012-05-15, 02:25:05,VALID,1004.31,VALID,0,VALID,94.6286,VALID,0.0815089,VALID,23.408,VALID,7,VALID,0,
2012-05-15, 02:26:05,VALID,1004.29,VALID,0,VALID,94.6439,VALID,0.0815089,VALID,23.4293,VALID,7,VALID,0,
2012-05-15, 02:27:05,VALID,1004.3,VALID,0,VALID,94.6668,VALID,0.0815089,VALID,23.4275,VALID,7,VALID,0,
2012-05-15, 02:28:05,VALID,1004.31,VALID,0,VALID,94.6668,VALID,0.0815089,VALID,23.4293,VALID,7,VALID,0,
2012-05-15, 02:29:05,VALID,1004.31,VALID,0,VALID,94.6668,VALID,0.0815089,VALID,23.408,VALID,7,VALID,0,
2012-05-15, 02:30:05,VALID,1004.27,VALID,0,VALID,94.682,VALID,0.0815089,VALID,23.4098,VALID,7,VALID,0,
2012-05-15, 02:31:05,VALID,1004.29,VALID,0,VALID,94.6897,VALID,0.0815089,VALID,23.4116,VALID,7,VALID,0,
2012-05-15, 02:32:05,VALID,1004.25,VALID,0,VALID,94.6897,VALID,0,VALID,23.3904,VALID,7,VALID,0,
2012-05-15, 02:33:05,VALID,1004.26,VALID,0,VALID,94.6744,VALID,0.0815089,VALID,23.3709,VALID,7,VALID,0,
2012-05-15, 02:34:05,VALID,1004.26,VALID,0,VALID,94.6897,VALID,0,VALID,23.3709,VALID,7,VALID,0,
2012-05-15, 02:35:05,VALID,1004.22,VALID,0,VALID,94.7278,VALID,0.0815089,VALID,23.3709,VALID,7,VALID,0,
2012-05-15, 02:36:05,VALID,1004.21,VALID,0,VALID,94.7354,VALID,0,VALID,23.3497,VALID,7,VALID,0,
2012-05-15, 02:37:05,VALID,1004.22,VALID,0,VALID,94.7736,VALID,0.0815089,VALID,23.3709,VALID,7,VALID,0,
2012-05-15, 02:38:05,VALID,1004.21,VALID,0,VALID,94.766,VALID,0.0815089,VALID,23.3709,VALID,7,VALID,0,
2012-05-15, 02:39:05,VALID,1004.2,VALID,0,VALID,94.7888,VALID,0,VALID,23.3727,VALID,7,VALID,0,
2012-05-15, 02:40:05,VALID,1004.18,VALID,0,VALID,94.8041,VALID,0,VALID,23.3727,VALID,7,VALID,0,
2012-05-15, 02:41:05,VALID,1004.17,VALID,0,VALID,94.8117,VALID,0,VALID,23.3727,VALID,7,VALID,0,
2012-05-15, 02:42:05,VALID,1004.14,VALID,0,VALID,94.8117,VALID,0,VALID,23.3744,VALID,7,VALID,0,
2012-05-15, 02:43:05,VALID,1004.13,VALID,0,VALID,94.8041,VALID,0,VALID,23.3532,VALID,7,VALID,0,
2012-05-15, 02:44:05,VALID,1004.12,VALID,0,VALID,94.8499,VALID,0,VALID,23.3514,VALID,7,VALID,0,
2012-05-15, 02:45:05,VALID,1004.09,VALID,0,VALID,94.8346,VALID,0,VALID,23.3514,VALID,7,VALID,0,
2012-05-15, 02:46:05,VALID,1004.09,VALID,0,VALID,94.7965,VALID,0,VALID,23.3532,VALID,7,VALID,0,
2012-05-15, 02:47:05,VALID,1004.06,VALID,0,VALID,94.8194,VALID,0,VALID,23.3514,VALID,7,VALID,0,
2012-05-15, 02:48:05,VALID,1004.03,VALID,0,VALID,94.7965,VALID,0,VALID,23.3727,VALID,7,VALID,0,
2012-05-15, 02:49:05,VALID,1004.04,VALID,0,VALID,94.8651,VALID,0,VALID,23.4116,VALID,7,VALID,0,
2012-05-15, 02:50:05,VALID,1004.04,VALID,0,VALID,94.7278,VALID,0,VALID,23.3532,VALID,7,VALID,0,
2012-05-15, 02:51:05,VALID,1004.03,VALID,0,VALID,94.7736,VALID,0,VALID,23.3532,VALID,7,VALID,0,
2012-05-15, 02:52:05,VALID,1004.03,VALID,0,VALID,94.7812,VALID,0,VALID,23.3532,VALID,7,VALID,0,
2012-05-15, 02:53:05,VALID,1004.07,VALID,0,VALID,94.7888,VALID,0,VALID,23.3939,VALID,7,VALID,0,
2012-05-15, 02:54:05,VALID,1004.06,VALID,0,VALID,94.7431,VALID,0,VALID,23.3532,VALID,7,VALID,0,
2012-05-15, 02:55:05,VALID,1004.08,VALID,0,VALID,94.7202,VALID,0,VALID,23.3337,VALID,7,VALID,0,
2012-05-15, 02:56:05,VALID,1004.07,VALID,0,VALID,94.7354,VALID,0,VALID,23.3143,VALID,7,VALID,0,
2012-05-15, 02:57:05,VALID,1004.1,VALID,0,VALID,94.7583,VALID,0,VALID,23.3337,VALID,7,VALID,0,
2012-05-15, 02:58:05,VALID,1004.09,VALID,0,VALID,94.7888,VALID,0,VALID,23.3337,VALID,7,VALID,0,
2012-05-15, 02:59:05,VALID,1004.07,VALID,0,VALID,94.7888,VALID,0,VALID,23.3337,VALID,7,VALID,0,
2012-05-15, 03:00:05,VALID,1004.09,VALID,0,VALID,94.8041,VALID,0,VALID,23.3143,VALID,7,VALID,0,
2012-05-15, 03:01:05,VALID,1004.07,VALID,0,VALID,94.7965,VALID,0,VALID,23.3125,VALID,7,VALID,0,
2012-05-15, 03:02:05,VALID,1004.07,VALID,0,VALID,94.8194,VALID,0,VALID,23.3337,VALID,7,VALID,0,
2012-05-15, 03:03:05,VALID,1004.08,VALID,0,VALID,94.8194,VALID,0,VALID,23.3337,VALID,7,VALID,0,
2012-05-15, 03:04:05,VALID,1004.07,VALID,0,VALID,94.8422,VALID,0,VALID,23.3337,VALID,7,VALID,0,
2012-05-15, 03:05:05,VALID,1004.08,VALID,0,VALID,94.8499,VALID,0,VALID,23.355,VALID,7,VALID,0,
2012-05-15, 03:06:05,VALID,1004.09,VALID,0,VALID,94.8499,VALID,0,VALID,23.3125,VALID,7,VALID,0,
2012-05-15, 03:07:05,VALID,1004.14,VALID,0,VALID,94.8804,VALID,0,VALID,23.3337,VALID,7,VALID,0,
2012-05-15, 03:08:05,VALID,1004.15,VALID,0,VALID,94.888,VALID,0,VALID,23.3337,VALID,7,VALID,0,
2012-05-15, 03:09:05,VALID,1004.17,VALID,0,VALID,94.8499,VALID,0,VALID,23.332,VALID,7,VALID,0,
2012-05-15, 03:10:05,VALID,1004.19,VALID,0,VALID,94.8728,VALID,0,VALID,23.2913,VALID,7,VALID,0,
2012-05-15, 03:11:05,VALID,1004.16,VALID,0,VALID,94.888,VALID,0,VALID,23.332,VALID,7,VALID,0,
2012-05-15, 03:12:05,VALID,1004.16,VALID,0,VALID,94.9262,VALID,0,VALID,23.332,VALID,7,VALID,0,
2012-05-15, 03:13:05,VALID,1004.15,VALID,0,VALID,94.9414,VALID,0,VALID,23.332,VALID,7,VALID,0,
2012-05-15, 03:14:05,VALID,1004.14,VALID,0,VALID,94.9643,VALID,0,VALID,23.3497,VALID,6,VALID,0,
2012-05-15, 03:15:05,VALID,1004.12,VALID,0,VALID,94.9643,VALID,0,VALID,23.3497,VALID,5,VALID,0,
2012-05-15, 03:16:05,VALID,1004.11,VALID,0,VALID,94.9643,VALID,0,VALID,23.3709,VALID,5,VALID,0,
2012-05-15, 03:17:05,VALID,1004.12,VALID,0,VALID,94.9796,VALID,0,VALID,23.3302,VALID,5,VALID,0,
2012-05-15, 03:18:05,VALID,1004.1,VALID,0,VALID,94.9414,VALID,0,VALID,23.3514,VALID,5,VALID,0,
2012-05-15, 03:19:05,VALID,1004.09,VALID,0,VALID,94.9185,VALID,0,VALID,23.3125,VALID,5,VALID,0,
2012-05-15, 03:20:05,VALID,1004.08,VALID,0,VALID,94.9109,VALID,0,VALID,23.2913,VALID,5,VALID,0,
2012-05-15, 03:21:05,VALID,1004.09,VALID,0,VALID,94.9262,VALID,0,VALID,23.3125,VALID,5,VALID,0,
2012-05-15, 03:22:05,VALID,1004.07,VALID,0,VALID,94.9109,VALID,0,VALID,23.3125,VALID,5,VALID,0,
2012-05-15, 03:23:05,VALID,1004.12,VALID,0,VALID,94.9109,VALID,0,VALID,23.3337,VALID,5,VALID,0,
2012-05-15, 03:24:05,VALID,1004.08,VALID,0,VALID,94.9033,VALID,0,VALID,23.2736,VALID,5,VALID,0,
2012-05-15, 03:25:05,VALID,1004.06,VALID,0,VALID,94.888,VALID,0,VALID,23.2948,VALID,5,VALID,0,
2012-05-15, 03:26:05,VALID,1004.05,VALID,0,VALID,94.8956,VALID,0,VALID,23.2931,VALID,5,VALID,0,
2012-05-15, 03:27:05,VALID,1004.06,VALID,0,VALID,94.9262,VALID,0,VALID,23.2931,VALID,5,VALID,0,
2012-05-15, 03:28:05,VALID,1004.03,VALID,0,VALID,94.9643,VALID,0,VALID,23.332,VALID,5,VALID,0,
2012-05-15, 03:29:05,VALID,1004.05,VALID,0,VALID,94.9643,VALID,0,VALID,23.2913,VALID,5,VALID,0,
2012-05-15, 03:30:05,VALID,1004.05,VALID,0,VALID,94.9643,VALID,0,VALID,23.3107,VALID,5,VALID,0,
2012-05-15, 03:31:05,VALID,1004.02,VALID,0,VALID,94.9719,VALID,0,VALID,23.3125,VALID,5,VALID,0,
2012-05-15, 03:32:05,VALID,1004.04,VALID,0,VALID,94.9338,VALID,0,VALID,23.332,VALID,5,VALID,0,
2012-05-15, 03:33:05,VALID,1004.02,VALID,0,VALID,94.949,VALID,0,VALID,23.3532,VALID,5,VALID,0,
2012-05-15, 03:34:05,VALID,1004.03,VALID,0,VALID,94.9872,VALID,0,VALID,23.3727,VALID,5,VALID,0,
2012-05-15, 03:35:05,VALID,1004.06,VALID,0,VALID,94.9414,VALID,0,VALID,23.3514,VALID,5,VALID,0,
2012-05-15, 03:36:05,VALID,1004.02,VALID,0,VALID,94.9262,VALID,0,VALID,23.332,VALID,5,VALID,0,
2012-05-15, 03:37:05,VALID,1004.02,VALID,0,VALID,94.9109,VALID,0,VALID,23.332,VALID,5,VALID,0,
2012-05-15, 03:38:05,VALID,1004.02,VALID,0,VALID,94.8728,VALID,0,VALID,23.3532,VALID,5,VALID,0,
2012-05-15, 03:39:05,VALID,1004.02,VALID,0,VALID,94.8651,VALID,0,VALID,23.3532,VALID,5,VALID,0,
2012-05-15, 03:40:05,VALID,1003.99,VALID,0,VALID,94.827,VALID,0,VALID,23.3125,VALID,5,VALID,0,
2012-05-15, 03:41:05,VALID,1004,VALID,0,VALID,94.8194,VALID,0,VALID,23.3125,VALID,5,VALID,0,
2012-05-15, 03:42:05,VALID,1003.97,VALID,0,VALID,94.8499,VALID,0,VALID,23.332,VALID,5,VALID,0,
2012-05-15, 03:43:05,VALID,1003.97,VALID,0,VALID,94.8117,VALID,0,VALID,23.2931,VALID,5,VALID,0,
2012-05-15, 03:44:05,VALID,1003.97,VALID,0,VALID,94.8575,VALID,0,VALID,23.3125,VALID,5,VALID,0,
2012-05-15, 03:45:05,VALID,1003.95,VALID,0,VALID,94.8804,VALID,0,VALID,23.332,VALID,4,VALID,0,
2012-05-15, 03:46:05,VALID,1003.96,VALID,0,VALID,94.8575,VALID,0,VALID,23.2913,VALID,4,VALID,0,
2012-05-15, 03:47:05,VALID,1003.94,VALID,0,VALID,94.8499,VALID,0,VALID,23.2913,VALID,3,VALID,0,
2012-05-15, 03:48:05,VALID,1003.93,VALID,0,VALID,94.9185,VALID,0,VALID,23.332,VALID,3,VALID,0,
2012-05-15, 03:49:05,VALID,1003.97,VALID,0,VALID,94.9185,VALID,0,VALID,23.3514,VALID,3,VALID,0,
2012-05-15, 03:50:05,VALID,1003.98,VALID,0,VALID,94.888,VALID,0,VALID,23.3514,VALID,3,VALID,0,
2012-05-15, 03:51:05,VALID,1003.98,VALID,0,VALID,94.9109,VALID,0.0815089,VALID,23.3514,VALID,3,VALID,0,
2012-05-15, 03:52:05,VALID,1003.98,VALID,0,VALID,94.9109,VALID,0,VALID,23.3709,VALID,3,VALID,0,
2012-05-15, 03:53:05,VALID,1003.99,VALID,0,VALID,94.9262,VALID,0.0815089,VALID,23.3904,VALID,3,VALID,0,
2012-05-15, 03:54:05,VALID,1004.02,VALID,0,VALID,94.9033,VALID,0,VALID,23.3904,VALID,3,VALID,0,
2012-05-15, 03:55:05,VALID,1004.01,VALID,0,VALID,94.888,VALID,0,VALID,23.3904,VALID,3,VALID,0,
2012-05-15, 03:56:05,VALID,1004.03,VALID,0,VALID,94.8651,VALID,0,VALID,23.4116,VALID,3,VALID,0,
2012-05-15, 03:57:05,VALID,1004.01,VALID,0,VALID,94.8041,VALID,0,VALID,23.3709,VALID,3,VALID,0,
2012-05-15, 03:58:05,VALID,1004.01,VALID,0,VALID,94.6973,VALID,0,VALID,23.332,VALID,3,VALID,0,
2012-05-15, 03:59:05,VALID,1004.02,VALID,0,VALID,94.6897,VALID,0,VALID,23.3125,VALID,3,VALID,0,